Weather History for New Philadelphia, OH

Change the Weather History Date:

Saturday, June 23, 2012

  Actual Average Record
Temperature  
Mean Temperature 70 °F 70 °F  
Max Temperature 84 °F 82 °F 97 °F (1988)
Min Temperature 56 °F 59 °F 39 °F (1992)
Degree Days  
Heating Degree Days 0 0  
Month to date heating degree days 17 33  
Since 1 June heating degree days 17 33  
Since 1 July heating degree days 3111 5642  
Cooling Degree Days 5 6  
Month to date cooling degree days 123 99  
Year to date cooling degree days 270 142  
Since 1 June cooling degree days 123 99  
Growing Degree Days 20 (Base 50)    
Moisture  
Dew Point 56 °F    
Average Humidity 65    
Maximum Humidity 93    
Minimum Humidity 36    
Precipitation  
Precipitation 0.00 in 0.11 in 1.61 in (1969)
Month to date precipitation 2.32 3.10  
Year to date precipitation 12.41 18.70  
Sea Level Pressure  
Sea Level Pressure 30.02 in    
Wind  
Wind Speed 3 mph (NW)    
Max Wind Speed 12 mph    
Max Gust Speed 17 mph    
Visibility 10 miles    
Events      
T = Trace of Precipitation, MM = Missing Value Source: NWS Daily Summary

Daily Weather History Graph

Daily Weather History Graph

Search for Another Location

Airport:

Trip Planner

Search our weather history database for the weather conditions in past years. The results will help you decide how hot, cold, wet, or windy it might be!

Date:

Astronomy

Jun. 23, 2012 Rise Set
Actual Time 5:56 AM EDT 8:59 PM EDT
Civil Twilight 5:22 AM EDT 9:33 PM EDT
Nautical Twilight 4:40 AM EDT 10:15 PM EDT
Astronomical Twilight 3:50 AM EDT 11:05 PM EDT
Moon 9:57 AM EDT (6/23) 11:26 PM EDT (6/23)
Length of Visible Light 16h 10m
Length of Day
15h 03m
Waxing Crescent, 16% of the Moon is Illuminated
Jun 23
Waxing Crescent
Jun 26
First Quarter
Jul 3
Full
Jul 10
Last Quarter
Jul 19
New

Hourly Weather History & Observations

Time (EDT) Temp. Heat Index Dew Point Humidity Pressure Visibility Wind Dir Wind Speed Gust Speed Precip Events Conditions
12:53 AM 62.1 °F - 57.0 °F 84% 29.97 in 10.0 mi Calm Calm - N/A   Scattered Clouds
1:53 AM 62.1 °F - 57.9 °F 86% 29.98 in 10.0 mi Calm Calm - N/A   Mostly Cloudy
2:53 AM 60.1 °F - 57.0 °F 90% 29.98 in 10.0 mi Calm Calm - N/A   Clear
3:53 AM 59.0 °F - 55.9 °F 90% 29.98 in 10.0 mi Calm Calm - N/A   Clear
4:53 AM 57.0 °F - 55.0 °F 93% 29.98 in 10.0 mi Calm Calm - N/A   Clear
5:53 AM 57.0 °F - 55.0 °F 93% 29.99 in 9.0 mi Calm Calm - N/A   Clear
6:53 AM 57.9 °F - 55.0 °F 90% 30.01 in 9.0 mi Calm Calm - N/A   Clear
7:53 AM 63.0 °F - 57.9 °F 84% 30.02 in 10.0 mi Calm Calm - N/A   Clear
8:53 AM 69.1 °F - 59.0 °F 70% 30.01 in 10.0 mi Calm Calm - N/A   Clear
9:53 AM 75.0 °F - 55.9 °F 51% 30.02 in 10.0 mi Calm Calm - N/A   Clear
10:53 AM 77.0 °F - 55.9 °F 48% 30.04 in 10.0 mi WNW 4.6 mph - N/A   Clear
11:53 AM 79.0 °F - 57.0 °F 47% 30.03 in 10.0 mi Variable 4.6 mph - N/A   Clear
12:53 PM 80.1 °F 80.2 °F 55.9 °F 43% 30.04 in 10.0 mi Variable 3.5 mph - N/A   Mostly Cloudy
1:53 PM 81.0 °F 80.8 °F 55.9 °F 42% 30.03 in 10.0 mi NNW 9.2 mph - N/A   Mostly Cloudy
2:53 PM 82.0 °F 81.3 °F 54.0 °F 38% 30.04 in 10.0 mi WNW 8.1 mph - N/A   Partly Cloudy
3:53 PM 82.9 °F 81.9 °F 54.0 °F 37% 30.02 in 10.0 mi Variable 5.8 mph - N/A   Clear
4:53 PM 82.9 °F 81.8 °F 53.1 °F 36% 30.02 in 10.0 mi West 8.1 mph - N/A   Clear
5:53 PM 82.9 °F 81.8 °F 53.1 °F 36% 30.02 in 10.0 mi WNW 6.9 mph - N/A   Clear
6:53 PM 81.0 °F - 52.0 °F 36% 30.01 in 10.0 mi WNW 8.1 mph - N/A   Clear
7:53 PM 78.1 °F - 55.9 °F 46% 30.01 in 10.0 mi North 5.8 mph - N/A   Clear
8:53 PM 73.9 °F - 57.0 °F 55% 30.02 in 10.0 mi North 3.5 mph - N/A   Clear
9:53 PM 72.0 °F - 55.0 °F 55% 30.04 in 10.0 mi Calm Calm - N/A   Clear
10:53 PM 66.0 °F - 57.9 °F 75% 30.06 in 10.0 mi Calm Calm - N/A   Clear
11:53 PM 64.9 °F - 57.9 °F 78% 30.07 in 10.0 mi Calm Calm - N/A   Clear